When you browse on this site, cookies collect data to enhance your experience and personalize the content and advertising you see.
Visit our Privacy Policy to learn more. By continuing to use the site, you agree to this use of cookies and data.
  • In Österreich
  • Länderverzeichnis
  • Für 7 Tage
  • Wassertemperatur
  • Satellitenkarten
  • Wetterkarte
  • News
  • Widgets
  • user-avatar
    Anmelden

    Stündliche Wetter Berat

    Heute, 25 Mai, Samstag

    Zeit Temperatur Niederschläge Wind Luftdruck Luftfeuchtigkeit
    00:00 +14°C° 0 mm 1 m/S 743 mmHg 86%
    01:00 +14°C° 0 mm 1 m/S 743 mmHg 86%
    02:00 +14°C° 0 mm 1 m/S 743 mmHg 85%
    03:00 +14°C° 0 mm 1 m/S 743 mmHg 84%
    04:00 +14°C° 0 mm 1 m/S 743 mmHg 83%
    05:00 +15°C° 0 mm 1 m/S 744 mmHg 76%
    06:00 +18°C° 0 mm 1 m/S 744 mmHg 69%
    07:00 +20°C° 0 mm 1 m/S 744 mmHg 62%
    08:00 +21°C° 0 mm 1 m/S 744 mmHg 58%
    09:00 +21°C° 0 mm 2 m/S 744 mmHg 53%
    10:00 +24°C° 0 mm 2 m/S 745 mmHg 48%
    11:00 +24°C° 0 mm 2 m/S 745 mmHg 48%
    12:00 +25°C° 0 mm 3 m/S 745 mmHg 48%
    13:00 +25°C° 0 mm 3 m/S 745 mmHg 47%
    14:00 +25°C° 0 mm 3 m/S 744 mmHg 51%
    15:00 +25°C° 0 mm 3 m/S 744 mmHg 54%
    16:00 +24°C° 0 mm 3 m/S 744 mmHg 57%
    17:00 +21°C° 0 mm 2 m/S 744 mmHg 65%
    18:00 +20°C° 0 mm 2 m/S 744 mmHg 73%
    19:00 +19°C° 0 mm 1 m/S 744 mmHg 81%
    20:00 +18°C° 0 mm 1 m/S 744 mmHg 82%
    21:00 +18°C° 0 mm 1 m/S 744 mmHg 83%
    22:00 +18°C° 0 mm 1 m/S 745 mmHg 84%
    23:00 +16°C° 0 mm 1 m/S 745 mmHg 84%

    Morgen, 26 Mai, Sonntag

    Zeit Temperatur Niederschläge Wind Luftdruck Luftfeuchtigkeit
    00:00 +16°C° 0 mm 1 m/S 745 mmHg 84%
    01:00 +16°C° 0 mm 1 m/S 745 mmHg 84%
    02:00 +16°C° 0 mm 1 m/S 745 mmHg 83%
    03:00 +15°C° 0 mm 1 m/S 744 mmHg 81%
    04:00 +15°C° 0 mm 1 m/S 744 mmHg 80%
    05:00 +18°C° 0 mm 1 m/S 744 mmHg 74%
    06:00 +20°C° 0 mm 1 m/S 744 mmHg 67%
    07:00 +22°C° 0 mm 1 m/S 744 mmHg 60%
    08:00 +24°C° 0 mm 1 m/S 744 mmHg 54%
    09:00 +26°C° 0 mm 1 m/S 744 mmHg 47%
    10:00 +26°C° 0 mm 0 m/S 744 mmHg 40%
    11:00 +28°C° 0 mm 1 m/S 744 mmHg 41%
    12:00 +28°C° 0 mm 2 m/S 744 mmHg 42%
    13:00 +29°C° 0 mm 3 m/S 744 mmHg 43%
    14:00 +28°C° 0 mm 3 m/S 744 mmHg 48%
    15:00 +27°C° 0 mm 3 m/S 743 mmHg 53%
    16:00 +26°C° 0 mm 3 m/S 743 mmHg 59%
    17:00 +24°C° 0 mm 2 m/S 743 mmHg 64%
    18:00 +23°C° 0 mm 1 m/S 743 mmHg 69%
    19:00 +21°C° 0 mm 1 m/S 743 mmHg 75%
    20:00 +21°C° 0 mm 1 m/S 743 mmHg 74%
    21:00 +21°C° 0 mm 1 m/S 743 mmHg 73%
    22:00 +21°C° 0 mm 1 m/S 744 mmHg 72%
    23:00 +21°C° 0 mm 1 m/S 743 mmHg 73%

    übermorgen, 27 Mai, Montag

    Zeit Temperatur Niederschläge Wind Luftdruck Luftfeuchtigkeit
    00:00 +20°C° 0 mm 2 m/S 743 mmHg 75%
    01:00 +20°C° 0 mm 2 m/S 743 mmHg 76%
    02:00 +19°C° 0 mm 2 m/S 743 mmHg 75%
    03:00 +19°C° 0 mm 2 m/S 742 mmHg 75%
    04:00 +19°C° 0 mm 2 m/S 742 mmHg 75%
    05:00 +20°C° 0.4 mm 2 m/S 742 mmHg 77%
    06:00 +20°C° 0.4 mm 2 m/S 742 mmHg 79%
    07:00 +20°C° 0.4 mm 2 m/S 742 mmHg 81%
    08:00 +23°C° 0.1 mm 2 m/S 742 mmHg 75%
    09:00 +24°C° 0.1 mm 3 m/S 742 mmHg 69%
    10:00 +26°C° 0.1 mm 3 m/S 742 mmHg 63%
    11:00 +27°C° 0 mm 3 m/S 742 mmHg 57%
    12:00 +28°C° 0 mm 4 m/S 742 mmHg 52%
    13:00 +30°C° 0 mm 4 m/S 741 mmHg 46%
    14:00 +29°C° 0.1 mm 3 m/S 741 mmHg 52%
    15:00 +28°C° 0.1 mm 2 m/S 740 mmHg 57%
    16:00 +27°C° 0.1 mm 2 m/S 740 mmHg 63%
    17:00 +25°C° 0.2 mm 1 m/S 740 mmHg 68%
    18:00 +24°C° 0.2 mm 1 m/S 740 mmHg 72%
    19:00 +22°C° 0.2 mm 1 m/S 740 mmHg 77%
    20:00 +20°C° 0 mm 2 m/S 741 mmHg 78%
    21:00 +20°C° 0 mm 2 m/S 741 mmHg 79%
    22:00 +19°C° 0 mm 3 m/S 741 mmHg 79%
    23:00 +18°C° 0 mm 3 m/S 741 mmHg 80%

    28 Mai, Dienstag

    Zeit Temperatur Niederschläge Wind Luftdruck Luftfeuchtigkeit
    00:00 +18°C° 0 mm 3 m/S 741 mmHg 81%
    01:00 +18°C° 0 mm 3 m/S 741 mmHg 82%
    02:00 +17°C° 0 mm 3 m/S 741 mmHg 82%
    03:00 +17°C° 0 mm 3 m/S 740 mmHg 82%
    04:00 +17°C° 0 mm 3 m/S 740 mmHg 82%
    05:00 +18°C° 0 mm 3 m/S 741 mmHg 76%
    06:00 +20°C° 0 mm 4 m/S 741 mmHg 70%
    07:00 +21°C° 0 mm 4 m/S 741 mmHg 64%
    08:00 +22°C° 0 mm 4 m/S 741 mmHg 61%
    09:00 +25°C° 0 mm 4 m/S 741 mmHg 58%
    10:00 +26°C° 0 mm 4 m/S 741 mmHg 55%
    11:00 +26°C° 0.1 mm 5 m/S 741 mmHg 56%
    12:00 +26°C° 0.1 mm 5 m/S 741 mmHg 56%
    13:00 +26°C° 0.1 mm 5 m/S 741 mmHg 57%
    14:00 +26°C° 0.2 mm 5 m/S 741 mmHg 59%
    15:00 +25°C° 0.2 mm 4 m/S 741 mmHg 61%
    16:00 +25°C° 0.2 mm 4 m/S 741 mmHg 63%
    17:00 +22°C° 0.1 mm 3 m/S 741 mmHg 69%
    18:00 +20°C° 0.1 mm 2 m/S 742 mmHg 76%
    19:00 +19°C° 0.1 mm 2 m/S 742 mmHg 83%
    20:00 +18°C° 0 mm 2 m/S 742 mmHg 85%
    21:00 +18°C° 0 mm 2 m/S 742 mmHg 86%
    22:00 +17°C° 0 mm 2 m/S 743 mmHg 88%
    23:00 +17°C° 0 mm 2 m/S 743 mmHg 89%

    29 Mai, Mittwoch

    Zeit Temperatur Niederschläge Wind Luftdruck Luftfeuchtigkeit
    00:00 +17°C° 0 mm 2 m/S 743 mmHg 89%
    01:00 +17°C° 0 mm 2 m/S 743 mmHg 90%
    02:00 +16°C° 0 mm 2 m/S 743 mmHg 90%
    03:00 +16°C° 0 mm 2 m/S 743 mmHg 90%
    04:00 +16°C° 0 mm 2 m/S 743 mmHg 90%
    05:00 +17°C° 0 mm 2 m/S 744 mmHg 85%
    06:00 +19°C° 0 mm 2 m/S 744 mmHg 80%
    07:00 +20°C° 0 mm 2 m/S 744 mmHg 75%
    08:00 +23°C° 0 mm 2 m/S 745 mmHg 69%
    09:00 +24°C° 0 mm 2 m/S 745 mmHg 64%
    10:00 +25°C° 0 mm 2 m/S 745 mmHg 59%
    11:00 +26°C° 0.1 mm 3 m/S 745 mmHg 59%
    12:00 +26°C° 0.1 mm 3 m/S 745 mmHg 59%
    13:00 +26°C° 0.1 mm 3 m/S 745 mmHg 59%
    14:00 +26°C° 0.2 mm 3 m/S 745 mmHg 61%
    15:00 +26°C° 0.2 mm 3 m/S 745 mmHg 63%
    16:00 +25°C° 0.2 mm 3 m/S 745 mmHg 66%
    17:00 +24°C° 0 mm 2 m/S 745 mmHg 72%
    18:00 +21°C° 0 mm 2 m/S 745 mmHg 79%
    19:00 +21°C° 0 mm 1 m/S 746 mmHg 85%
    20:00 +20°C° 0 mm 1 m/S 746 mmHg 87%
    21:00 +19°C° 0 mm 1 m/S 746 mmHg 89%
    22:00 +19°C° 0 mm 1 m/S 747 mmHg 91%
    23:00 +19°C° 0 mm 1 m/S 747 mmHg 90%

    30 Mai, Donnerstag

    Zeit Temperatur Niederschläge Wind Luftdruck Luftfeuchtigkeit
    00:00 +18°C° 0 mm 1 m/S 746 mmHg 90%
    01:00 +18°C° 0 mm 1 m/S 746 mmHg 89%
    02:00 +18°C° 0 mm 1 m/S 746 mmHg 88%
    03:00 +18°C° 0 mm 1 m/S 746 mmHg 87%
    04:00 +18°C° 0 mm 1 m/S 746 mmHg 85%
    05:00 +20°C° 0 mm 1 m/S 746 mmHg 76%
    06:00 +22°C° 0 mm 1 m/S 747 mmHg 68%
    07:00 +21°C° 0 mm 0 m/S 747 mmHg 59%
    08:00 +25°C° 0 mm 1 m/S 747 mmHg 55%
    09:00 +26°C° 0 mm 1 m/S 747 mmHg 52%
    10:00 +27°C° 0 mm 2 m/S 747 mmHg 48%
    11:00 +28°C° 0 mm 2 m/S 746 mmHg 49%
    12:00 +28°C° 0 mm 3 m/S 746 mmHg 49%
    13:00 +28°C° 0 mm 3 m/S 746 mmHg 50%
    14:00 +28°C° 0.2 mm 3 m/S 746 mmHg 53%
    15:00 +27°C° 0.2 mm 3 m/S 746 mmHg 56%
    16:00 +27°C° 0.2 mm 3 m/S 746 mmHg 59%
    17:00 +25°C° 0.2 mm 3 m/S 746 mmHg 66%
    18:00 +23°C° 0.2 mm 2 m/S 746 mmHg 73%
    19:00 +21°C° 0.2 mm 1 m/S 746 mmHg 80%
    20:00 +21°C° 0 mm 1 m/S 746 mmHg 81%
    21:00 +20°C° 0 mm 1 m/S 746 mmHg 83%
    22:00 +17°C° 0 mm 0 m/S 746 mmHg 84%
    23:00 +17°C° 0 mm 0 m/S 745 mmHg 83%
    Mehr zeigen